STARLINK-1167, 45071

Orbit data source: Space-Track

STARLINK-1167, 45071 is a payload satellite owned by SpaceX/Seattle (US) in LEO that was launched on Wed, 29 Jan 2020 UTC via an FALCON 9 launch vehicle from the Air Force Eastern Test Range (AFETR). Payload-class satellites include a variety of spacecraft equipped with specific instruments for various scientific and technological missions. These include communications satellites like Starlink; space stations such as the ISS; scientific satellites like the Hubble; Earth observation satellites from companies like Planet Labs, Umbra, and HawkEye 360; GPS; miniature CubeSats for education and research; and military/defense satellites.

Loading next visibility...
Identifier
45071, 2020-006AD
Orbit
LEO
Last TLE update
12 hours ago
Origin
Manufacturer
SpaceX/Seattle
Mission
Operational Commercial Communications
Bus & Motor
STARLINK, Unknown motor
Mass
260 kg wet, ~248 kg dry
Launch date (UTC)
2020-01-29 (5 years ago)
Launch vehicle
FALCON 9
Launch site
Air Force Eastern Test Range (AFETR)
Object type
Payload
Rocket body
Debris
Shape & HBR
Box + 1 Pan, 8.86 m
Radar Cross Section
13.562 m², Large (>1 m²)

Expand to show TLE details & history

TLE from 12 hours ago
0 STARLINK-1167
1 45071U 20006AD  25181.73782396  .00001381  00000-0  11162-3 0  9994
2 45071  53.0562 317.6772 0001001  82.6018 277.5085 15.06392847298761
Epoch: 2025-06-30T17:42Z
TLE epoch observation values (Epoch: 2025-06-30T17:42:27.99Z)
Latitude
0.00002°
Longitude
133.01726°
Altitude
548.022 km
Speed
7.589 km/s
True Right ascension
21h 10m 42s
True Declination
0° 00' 00"
Sunlit
Object was in full shadow at epoch
Visualization orbit readout
Latitude
-52.54587°
Longitude
53.19864°
Altitude
566.153 km
Speed
7.578 km/s
Apparent Right ascension
09h 41m 11s
Apparent Declination
-76° 32' 53"
Sunlit
Object is in full shadow
Visualization observer readout
Local Sidereal Time
17:42:37
Azimuth
196.666° SSW
Elevation
-45.581°
Doppler factor
1
Orbital elements
Apogee altitude
548.197 km
Perigee altitude
546.811 km
Semi-major axis
6,925.641 km
Eccentricity
0.0001
Inclination
53.0562°
RAAN
317.6772°
Arg. of periapsis
82.6018°
True anomaly
Unknown
Mean anomaly
277.5085°
Eccentric anomaly
Unknown
Mean motion
3.76576 °/min
Orbital period
95.6 mins
BSTAR
0.00011162
Loading maneuver chart data...
Loading SW <> Apogee altitude chart data...

STARLINK-1167 Visibility forecast

Observer location: undefined°, undefined°

Span
Click to sort rows by Start time (UTC) header in descending order
Start Az.
Max El. time (UTC)
Max El. Az.
Max El.
End time (UTC)
End Az.
7 mins2025-07-01 11:22:53.294Z209.923° SW2025-07-01 11:26:53.294Z112.513° SE37.196°2025-07-01 11:29:53.294Z61.17° ENE
5 mins2025-07-01 13:03:53.294Z284.407° WNW2025-07-01 13:05:53.294Z324.73° NNW25.133°2025-07-01 13:08:53.294Z25.98° NE
6 mins2025-07-01 18:05:53.294Z328.634° NNW2025-07-01 18:07:53.294Z30.454° NE38.662°2025-07-01 18:11:53.294Z113.134° SE
4 mins2025-07-01 19:45:53.294Z258.279° W2025-07-01 19:46:53.294Z238.45° WSW19.957°2025-07-01 19:49:53.294Z185.682° SSW
|